Harlan, KY

4:51 PM EST on December 11, 2017 (GMT -0500)
Harlan

Weather History for KI35 - February, 2014

Change the Weather History Date:

Saturday, February 15, 2014

  Actual Average (KLOZ) Record (KLOZ)
Temperature  
Mean Temperature 30 °F -  
Max Temperature 37 °F 50 °F 69 °F (1989)
Min Temperature 23 °F 32 °F -4 °F (1960)
Degree Days  
Heating Degree Days 35    
Moisture  
Dew Point 22 °F    
Average Humidity 77    
Maximum Humidity 100    
Minimum Humidity 60    
Precipitation  
Precipitation 0.00 in - - ()
Sea Level Pressure  
Sea Level Pressure 29.95 in    
Wind  
Wind Speed 8 mph (WNW)    
Max Wind Speed 16 mph    
Max Gust Speed 30 mph    
Visibility 7 miles    
Events      
Averages and records for this station are not official NWS values.
T = Trace of Precipitation, MM = Missing Value Source: NWS Daily Summary

Daily Weather History Graph

Daily Weather History Graph

Search for Another Location

Airport or City:

Trip Planner

Search our weather history database for the weather conditions in past years. The results will help you decide how hot, cold, wet, or windy it might be!

Date:

Astronomy

Feb. 15, 2014 Rise Set
Actual Time 7:21 AM EST 6:13 PM EST
Civil Twilight 6:55 AM EST 6:40 PM EST
Nautical Twilight 6:24 AM EST 7:10 PM EST
Astronomical Twilight 5:54 AM EST 7:40 PM EST
Moon 7:10 PM EST (2/15) 7:22 AM EST (2/15)
Length of Visible Light 11h 45m
Length of Day
10h 51m
Full, 100% of the Moon is Illuminated
Feb 15
Full
Feb 22
Last Quarter
Mar 1
New
Mar 8
First Quarter
Mar 16
Full

Hourly Weather History & Observations

Time (EST) Temp. Windchill Dew Point Humidity Pressure Visibility Wind Dir Wind Speed Gust Speed Precip Events Conditions
12:15 AM 37.4 °F 32.1 °F 35.6 °F 93% 29.59 in 7.0 mi West 6.9 mph - N/A   Overcast
12:35 AM 37.4 °F 32.1 °F 35.6 °F 93% 29.60 in 10.0 mi West 6.9 mph - N/A   Overcast
12:55 AM 37.4 °F 32.8 °F 35.6 °F 93% 29.60 in 7.0 mi West 5.8 mph - N/A   Overcast
1:15 AM 37.4 °F 30.8 °F 35.6 °F 93% 29.61 in 7.0 mi West 9.2 mph - N/A   Overcast
1:35 AM 37.4 °F 30.8 °F 33.8 °F 87% 29.62 in 7.0 mi West 9.2 mph 18.4 mph N/A   Overcast
1:55 AM 35.6 °F 26.6 °F 32.0 °F 87% 29.64 in 7.0 mi West 13.8 mph 23.0 mph N/A   Overcast
2:15 AM 33.8 °F 27.7 °F 32.0 °F 93% 29.64 in 4.0 mi WSW 6.9 mph 18.4 mph N/A   Overcast
2:35 AM 33.8 °F 25.3 °F 32.0 °F 93% 29.65 in 3.0 mi West 11.5 mph 18.4 mph N/A   Overcast
2:55 AM 32.0 °F 23.0 °F 32.0 °F 100% 29.67 in 2.0 mi WNW 11.5 mph 24.2 mph N/A   Overcast
3:15 AM 32.0 °F 23.6 °F 30.2 °F 93% 29.68 in 5.0 mi West 10.4 mph 20.7 mph N/A   Overcast
3:35 AM 32.0 °F 22.1 °F 30.2 °F 93% 29.70 in 3.0 mi West 13.8 mph 19.6 mph N/A   Overcast
3:55 AM 32.0 °F 22.5 °F 28.4 °F 87% 29.71 in 7.0 mi West 12.7 mph 25.3 mph N/A   Overcast
4:15 AM 32.0 °F 24.8 °F 28.4 °F 87% 29.72 in 7.0 mi West 8.1 mph - N/A   Overcast
4:35 AM 30.2 °F 20.8 °F 26.6 °F 86% 29.75 in 7.0 mi WNW 11.5 mph 25.3 mph N/A   Overcast
4:55 AM 30.2 °F 18.9 °F 26.6 °F 86% 29.75 in 10.0 mi WNW 16.1 mph 27.6 mph N/A   Overcast
5:15 AM 30.2 °F 21.3 °F 26.6 °F 86% 29.77 in 5.0 mi West 10.4 mph 24.2 mph N/A   Overcast
5:35 AM 28.4 °F 16.6 °F 24.8 °F 86% 29.80 in 7.0 mi West 16.1 mph 21.9 mph N/A   Overcast
5:55 AM 28.4 °F 18.0 °F 24.8 °F 86% 29.82 in 7.0 mi West 12.7 mph 20.7 mph N/A   Overcast
6:15 AM 26.6 °F 18.2 °F 23.0 °F 86% 29.85 in 7.0 mi West 8.1 mph 25.3 mph N/A   Overcast
6:35 AM 26.6 °F 17.5 °F 21.2 °F 80% 29.87 in 3.0 mi NW 9.2 mph 19.6 mph N/A   Overcast
6:55 AM 24.8 °F 13.4 °F 21.2 °F 86% 29.88 in 3.0 mi WNW 12.7 mph 19.6 mph N/A   Overcast
7:15 AM 24.8 °F 12.4 °F 21.2 °F 86% 29.90 in 4.0 mi NW 15.0 mph 29.9 mph N/A   Overcast
7:35 AM 23.0 °F 10.1 °F 21.2 °F 93% 29.91 in 3.0 mi NW 15.0 mph 21.9 mph N/A   Overcast
7:55 AM 23.0 °F 11.7 °F 21.2 °F 93% 29.94 in 1.8 mi West 11.5 mph 19.6 mph N/A   Overcast
8:15 AM 23.0 °F 12.4 °F 19.4 °F 86% 29.95 in 1.0 mi West 10.4 mph 19.6 mph N/A   Overcast
8:35 AM 23.0 °F 13.1 °F 19.4 °F 86% 29.96 in 0.8 mi WNW 9.2 mph 16.1 mph N/A   Overcast
8:55 AM 23.0 °F 11.7 °F 17.6 °F 80% 29.98 in 0.8 mi WNW 11.5 mph 18.4 mph N/A   Overcast
9:15 AM 23.0 °F 13.1 °F 17.6 °F 80% 29.99 in 0.8 mi WNW 9.2 mph 16.1 mph N/A   Overcast
9:35 AM 23.0 °F 10.6 °F 15.8 °F 74% 30.00 in 5.0 mi WNW 13.8 mph 18.4 mph N/A   Overcast
9:55 AM 23.0 °F 13.9 °F 14.0 °F 68% 30.01 in 7.0 mi NW 8.1 mph 20.7 mph N/A   Overcast
10:15 AM 23.0 °F 13.9 °F 14.0 °F 68% 30.03 in 7.0 mi West 8.1 mph - N/A   Overcast
10:35 AM 23.0 °F 14.7 °F 15.8 °F 74% 30.03 in 4.0 mi WNW 6.9 mph - N/A   Overcast
10:55 AM 23.0 °F 15.8 °F 15.8 °F 74% 30.03 in 5.0 mi NW 5.8 mph - N/A   Overcast
11:15 AM 23.0 °F 13.9 °F 14.0 °F 68% 30.03 in 3.0 mi NW 8.1 mph - N/A   Overcast
11:35 AM 23.0 °F 14.7 °F 14.0 °F 68% 30.05 in 5.0 mi WNW 6.9 mph - N/A   Overcast
11:55 AM 24.8 °F 19.1 °F 17.6 °F 74% 30.05 in 5.0 mi West 4.6 mph - N/A   Overcast
12:15 PM 24.8 °F 16.1 °F 17.6 °F 74% 30.06 in 5.0 mi NW 8.1 mph - N/A   Overcast
12:35 PM 26.6 °F 17.5 °F 17.6 °F 69% 30.06 in 7.0 mi WNW 9.2 mph - N/A   Overcast
12:55 PM 26.6 °F 19.1 °F 15.8 °F 64% 30.06 in 10.0 mi WNW 6.9 mph - N/A   Overcast
1:15 PM 26.6 °F 20.0 °F 15.8 °F 64% 30.05 in 10.0 mi WNW 5.8 mph 16.1 mph N/A   Overcast
1:35 PM 26.6 °F 21.2 °F 17.6 °F 69% 30.05 in 10.0 mi WNW 4.6 mph - N/A   Overcast
1:55 PM 28.4 °F 21.2 °F 17.6 °F 64% 30.05 in 10.0 mi West 6.9 mph - N/A   Overcast
2:15 PM 28.4 °F 24.6 °F 17.6 °F 64% 30.05 in 10.0 mi WNW 3.5 mph - N/A   Overcast
2:35 PM 28.4 °F 22.2 °F 17.6 °F 64% 30.05 in 10.0 mi West 5.8 mph - N/A   Overcast
2:55 PM 30.2 °F 25.4 °F 19.4 °F 64% 30.05 in 10.0 mi WNW 4.6 mph - N/A   Overcast
3:15 PM 30.2 °F 23.4 °F 19.4 °F 64% 30.07 in 10.0 mi West 6.9 mph - N/A   Overcast
3:35 PM 30.2 °F - 19.4 °F 64% 30.08 in 10.0 mi Calm Calm - N/A   Overcast
3:55 PM 28.4 °F - 17.6 °F 64% 30.08 in 10.0 mi Calm Calm - N/A   Overcast
4:15 PM 28.4 °F 22.2 °F 17.6 °F 64% 30.07 in 10.0 mi WNW 5.8 mph - N/A   Mostly Cloudy
4:35 PM 28.4 °F 24.6 °F 17.6 °F 64% 30.07 in 10.0 mi WNW 3.5 mph - N/A   Scattered Clouds
4:55 PM 28.4 °F - 17.6 °F 64% 30.07 in 10.0 mi Calm Calm - N/A   Scattered Clouds
5:15 PM 30.2 °F 25.4 °F 19.4 °F 64% 30.08 in 10.0 mi WNW 4.6 mph - N/A   Scattered Clouds
5:35 PM 30.2 °F - 17.6 °F 60% 30.08 in 10.0 mi Calm Calm - N/A   Scattered Clouds
5:55 PM 28.4 °F 22.2 °F 17.6 °F 64% 30.08 in 10.0 mi WNW 5.8 mph - N/A   Scattered Clouds
6:15 PM 28.4 °F 23.3 °F 17.6 °F 64% 30.09 in 10.0 mi NW 4.6 mph - N/A   Clear
6:35 PM 28.4 °F 24.6 °F 19.4 °F 69% 30.10 in 10.0 mi WNW 3.5 mph - N/A   Clear
6:55 PM 28.4 °F 24.6 °F 19.4 °F 69% 30.10 in 10.0 mi West 3.5 mph - N/A   Clear
7:15 PM 28.4 °F - 19.4 °F 69% 30.09 in 10.0 mi Calm Calm - N/A   Clear
7:35 PM 26.6 °F - 17.6 °F 69% 30.08 in 10.0 mi Calm Calm - N/A   Clear
7:55 PM 26.6 °F - 19.4 °F 74% 30.09 in 10.0 mi Calm Calm - N/A   Clear
8:15 PM 26.6 °F - 19.4 °F 74% 30.08 in 10.0 mi Calm Calm - N/A   Clear
8:35 PM 26.6 °F - 19.4 °F 74% 30.06 in 10.0 mi Calm Calm - N/A   Scattered Clouds
8:55 PM 26.6 °F 22.6 °F 19.4 °F 74% 30.06 in 10.0 mi NNE 3.5 mph - N/A   Scattered Clouds
9:15 PM 26.6 °F - 19.4 °F 74% 30.07 in 10.0 mi Calm Calm - N/A   Scattered Clouds
9:35 PM 26.6 °F - 21.2 °F 80% 30.06 in 10.0 mi Calm Calm - N/A   Overcast
9:55 PM 24.8 °F - 21.2 °F 86% 30.06 in 10.0 mi Calm Calm - N/A   Scattered Clouds
10:15 PM 26.6 °F - 19.4 °F 74% 30.07 in 10.0 mi Calm Calm - N/A   Mostly Cloudy
10:35 PM 26.6 °F - 21.2 °F 80% 30.06 in 10.0 mi Calm Calm - N/A   Overcast
10:55 PM 26.6 °F - 21.2 °F 80% 30.06 in 10.0 mi Calm Calm - N/A   Overcast
11:15 PM 26.6 °F - 21.2 °F 80% 30.06 in 10.0 mi Calm Calm - N/A   Overcast
11:35 PM 26.6 °F - 21.2 °F 80% 30.06 in 10.0 mi Calm Calm - N/A   Overcast
11:55 PM 26.6 °F - 21.2 °F 80% 30.06 in 10.0 mi Calm Calm - N/A   Overcast